Location: Castelnau
(43.6639°N, 0.8431°W)
Time: 21:07:08
(UTC+00:00)

Meteor 1-11 Rocket - Pass Details

Date: 13 January 2026
Orbit: 829 x 915 km, 81.2° (Epoch: 10 February)

Event Time Altitude Azimuth Distance (km) Brightness Sun altitude
Exits shadow 05:13:38 49° 328° (NNW) 1,140 4.1 -25.0°
Drops below altitude 10° 05:18:10 10° 3° (N) 2,544 6.1 -24.2°
Sets 05:20:39 0° 7° (N) 3,474 6.9 -23.7°
